Flag for Turkey Weather past 2 weeks in Gaziantep, Turkey

Now
66 °F

Clear.


Feels Like: 66 °F
Forecast: 61 / 94 °F
Wind: No wind

Location: Gaziantep Airport

Current Time: Jul 3, 2015 at 5:53:39 AM

Latest Report: Jul 3, 2015 at 5:20 AM


Visibility: 10 mi

Pressure: 29.83 "Hg

Humidity: 60%

Dew point: 52 °F

Location of GaziantepLocation

Historic Weather in Gaziantep — Graph

°F

Gaziantep temperature yesterday

Maximum temperature yesterday: 97 °F (at 1:50 PM)
Minimum temperature yesterday: 61 °F (at 5:20 AM)
Average temperature yesterday: 82 °F

Past Weeks' High & Low Weather Summary

 TemperatureHumidityPressure
High97 °F (Jul 2, 1:50 PM)77% (Jun 19, 5:20 AM)29.98 "Hg (Jun 19, 5:20 AM)
Low57 °F (Jun 28, 5:50 AM)10% (Jul 2, 2:50 PM)29.59 "Hg (Jun 26, 3:50 PM)
Average77 °F43%29.77 "Hg
* Reported Jun 18 3:20 AM — Jul 3 3:50 AM, Gaziantep, Weather by CustomWeather, © 2015

Note: Actual official high and low records may vary slightly from our data, if they occured in-between our weather recording intervals... More about our weather records

Advertising

Gaziantep weather history for previous 24 hours

 ConditionsComfort  
Time TempWeatherWind HumidityBarometerVisibility
3:50 AM
Fri, Jul 3
66 °FClear.No wind60%29.86 "Hg10 mi
3:20 AM66 °FClear.2 mph60%29.86 "Hg10 mi
2:50 AM68 °FClear.6 mph56%29.86 "Hg10 mi
2:20 AM70 °FClear.5 mph50%29.86 "Hg10 mi
1:50 AM70 °FClear.No wind50%29.86 "Hg10 mi
1:20 AM68 °FClear.No wind53%29.86 "Hg10 mi
12:50 AM70 °FClear.No wind53%29.86 "Hg10 mi
12:20 AM72 °FClear.5 mph50%29.86 "Hg10 mi
11:50 PM
Thu, Jul 2
73 °FClear.No wind50%29.86 "Hg10 mi
11:20 PM73 °FClear.No wind50%29.89 "Hg10 mi
10:50 PM77 °FClear.No wind42%29.89 "Hg10 mi
10:20 PM75 °FClear.10 mph44%29.89 "Hg10 mi
9:50 PM79 °FClear.14 mph37%29.86 "Hg10 mi
9:20 PM79 °FClear.12 mph34%29.86 "Hg10 mi
8:50 PM81 °FSunny.8 mph34%29.86 "Hg10 mi
8:20 PM82 °FSunny.10 mph32%29.86 "Hg10 mi
7:50 PM84 °FSunny.9 mph29%29.86 "Hg10 mi
7:20 PM88 °FSunny.10 mph29%29.86 "Hg10 mi
6:50 PM90 °FSunny.12 mph26%29.83 "Hg10 mi
6:20 PM91 °FSunny.13 mph20%29.83 "Hg10 mi
5:50 PM93 °FPassing clouds.10 mph20%29.83 "HgN/A
5:20 PM95 °FPassing clouds.12 mph18%29.83 "HgN/A
4:50 PM95 °FPassing clouds.8 mph19%29.83 "HgN/A
4:20 PM95 °FPassing clouds.13 mph15%29.83 "HgN/A
3:50 PM97 °FPassing clouds.9 mph13%29.83 "HgN/A
3:20 PM97 °FPassing clouds.7 mph11%29.83 "HgN/A
2:50 PM97 °FSunny.12 mph10%29.86 "Hg10 mi
2:20 PM95 °FSunny.12 mph13%29.86 "Hg10 mi
1:50 PM97 °FPassing clouds.10 mph11%29.86 "HgN/A
1:20 PM95 °FPassing clouds.13 mph20%29.86 "HgN/A
12:50 PM93 °FPassing clouds.12 mph20%29.86 "HgN/A
12:20 PM95 °FPassing clouds.8 mph14%29.86 "HgN/A
11:50 AM95 °FPassing clouds.8 mph14%29.86 "HgN/A
11:20 AM93 °FPassing clouds.7 mph15%29.89 "HgN/A
10:50 AM93 °FSunny.2 mph17%29.89 "Hg10 mi
10:20 AM91 °FSunny.6 mph20%29.89 "Hg10 mi
9:50 AM90 °FSunny.5 mph24%29.89 "Hg10 mi
9:20 AM90 °FSunny.2 mph24%29.89 "Hg10 mi
8:50 AM88 °FSunny.No wind31%29.89 "Hg10 mi
8:20 AM86 °FSunny.No wind35%29.89 "Hg10 mi
7:50 AM82 °FSunny.No wind37%29.89 "Hg10 mi
7:20 AM75 °FSunny.No wind44%29.89 "Hg10 mi
6:50 AM70 °FSunny.No wind53%29.89 "Hg10 mi
6:20 AM66 °FSunny.No wind56%29.89 "Hg10 mi
5:50 AM63 °FClear.No wind64%29.86 "Hg10 mi
5:20 AM61 °FClear.No wind68%29.89 "Hg10 mi
Weather by CustomWeather, © 2015

See weather overviewHow to use our weather pages